Time,TemperatureF,DewpointF,PressureIn,WindDirection,WindDirectionDegrees,WindSpeedMPH,WindSpeedGustMPH,Humidity,HourlyPrecipIn,Conditions,Clouds,dailyrainin,SoftwareType,DateUTC
2013-02-06 00:02:00,30.0,27.0,30.01,North,360,0.0,5.0,88,0.00,,,0.00,,2013-02-06 05:02:00,
2013-02-06 00:12:00,30.0,27.0,30.01,North,360,0.0,5.0,88,0.00,,,0.00,,2013-02-06 05:12:00,
2013-02-06 00:22:00,30.0,27.0,30.01,North,360,0.0,5.0,88,0.00,,,0.00,,2013-02-06 05:22:00,
2013-02-06 00:32:00,30.0,26.0,30.02,NNE,19,0.0,4.0,86,0.00,,,0.00,,2013-02-06 05:32:00,
2013-02-06 00:41:00,30.0,26.0,30.02,NNE,19,0.0,4.0,86,0.00,,,0.00,,2013-02-06 05:41:00,
2013-02-06 00:53:00,30.0,26.0,30.03,NE,41,1.0,3.0,85,0.00,,,0.00,,2013-02-06 05:53:00,
2013-02-06 01:01:00,30.0,26.0,30.03,NE,41,1.0,3.0,85,0.00,,,0.00,,2013-02-06 06:01:00,
2013-02-06 01:11:00,30.0,26.0,30.03,NE,41,1.0,3.0,85,0.00,,,0.00,,2013-02-06 06:11:00,
2013-02-06 01:21:00,29.0,25.0,30.05,NNW,343,0.0,2.0,85,0.00,,,0.00,,2013-02-06 06:21:00,
2013-02-06 01:32:00,29.0,25.0,30.05,NNE,29,0.0,4.0,85,0.00,,,0.00,,2013-02-06 06:32:00,
2013-02-06 01:42:00,29.0,25.0,30.05,NNE,29,0.0,4.0,85,0.00,,,0.00,,2013-02-06 06:42:00,
2013-02-06 01:51:00,29.0,25.0,30.05,North,5,0.0,1.0,84,0.00,,,0.00,,2013-02-06 06:51:00,
2013-02-06 02:01:00,29.0,25.0,30.06,NNW,342,0.0,2.0,84,0.00,,,0.00,,2013-02-06 07:01:00,
2013-02-06 02:11:00,29.0,25.0,30.06,NNW,342,0.0,2.0,84,0.00,,,0.00,,2013-02-06 07:11:00,
2013-02-06 02:22:00,29.0,25.0,30.07,North,360,0.0,3.0,85,0.00,,,0.00,,2013-02-06 07:22:00,
2013-02-06 02:32:00,29.0,25.0,30.08,NNW,348,0.0,1.0,85,0.00,,,0.00,,2013-02-06 07:32:00,
2013-02-06 02:41:00,29.0,25.0,30.08,NNW,348,0.0,1.0,85,0.00,,,0.00,,2013-02-06 07:41:00,
2013-02-06 02:51:00,29.0,25.0,30.09,North,10,0.0,4.0,84,0.00,,,0.00,,2013-02-06 07:51:00,
2013-02-06 03:01:00,29.0,25.0,30.10,North,360,0.0,2.0,84,0.00,,,0.00,,2013-02-06 08:01:00,
2013-02-06 03:11:00,29.0,25.0,30.10,North,360,0.0,2.0,84,0.00,,,0.00,,2013-02-06 08:11:00,
2013-02-06 03:21:00,29.0,25.0,30.11,NNW,347,0.0,1.0,84,0.00,,,0.00,,2013-02-06 08:21:00,
2013-02-06 03:31:00,29.0,25.0,30.11,North,349,0.0,2.0,83,0.00,,,0.00,,2013-02-06 08:31:00,
2013-02-06 03:42:00,29.0,25.0,30.11,North,349,0.0,2.0,83,0.00,,,0.00,,2013-02-06 08:42:00,
2013-02-06 03:53:00,29.0,25.0,30.11,North,360,0.0,2.0,84,0.00,,,0.00,,2013-02-06 08:53:00,
2013-02-06 04:01:00,28.0,24.0,30.11,North,349,0.0,1.0,85,0.00,,,0.00,,2013-02-06 09:01:00,
2013-02-06 04:11:00,28.0,24.0,30.11,North,349,0.0,1.0,85,0.00,,,0.00,,2013-02-06 09:11:00,
2013-02-06 04:21:00,28.0,24.0,30.12,North,355,0.0,2.0,85,0.00,,,0.00,,2013-02-06 09:21:00,
2013-02-06 04:31:00,28.0,24.0,30.12,North,355,0.0,1.0,86,0.00,,,0.00,,2013-02-06 09:31:00,
2013-02-06 04:41:00,28.0,24.0,30.12,North,355,0.0,1.0,86,0.00,,,0.00,,2013-02-06 09:41:00,
2013-02-06 04:51:00,27.0,23.0,30.12,North,355,0.0,0.0,86,0.00,,,0.00,,2013-02-06 09:51:00,
2013-02-06 05:01:00,27.0,23.0,30.12,North,355,0.0,1.0,86,0.00,,,0.00,,2013-02-06 10:01:00,
2013-02-06 05:11:00,27.0,23.0,30.12,North,355,0.0,1.0,86,0.00,,,0.00,,2013-02-06 10:11:00,
2013-02-06 05:21:00,27.0,23.0,30.13,North,360,0.0,1.0,86,0.00,,,0.00,,2013-02-06 10:21:00,
2013-02-06 05:31:00,26.0,22.0,30.14,North,360,0.0,0.0,85,0.00,,,0.00,,2013-02-06 10:31:00,
2013-02-06 05:42:00,26.0,22.0,30.14,North,360,0.0,0.0,85,0.00,,,0.00,,2013-02-06 10:42:00,
2013-02-06 05:51:00,26.0,22.0,30.15,North,355,0.0,1.0,84,0.00,,,0.00,,2013-02-06 10:51:00,
2013-02-06 06:01:00,26.0,22.0,30.16,North,355,0.0,1.0,84,0.00,,,0.00,,2013-02-06 11:01:00,
2013-02-06 06:11:00,26.0,22.0,30.16,North,355,0.0,1.0,84,0.00,,,0.00,,2013-02-06 11:11:00,
2013-02-06 06:22:00,26.0,22.0,30.16,NNW,327,0.0,2.0,83,0.00,,,0.00,,2013-02-06 11:22:00,
2013-02-06 06:32:00,25.0,21.0,30.17,NNW,327,0.0,0.0,83,0.00,,,0.00,,2013-02-06 11:32:00,
2013-02-06 06:42:00,25.0,21.0,30.17,NNW,327,0.0,0.0,83,0.00,,,0.00,,2013-02-06 11:42:00,
2013-02-06 06:52:00,24.0,20.0,30.18,NNW,327,0.0,0.0,86,0.00,,,0.00,,2013-02-06 11:52:00,
2013-02-06 07:02:00,24.0,20.0,30.19,NNW,327,0.0,1.0,86,0.00,,,0.00,,2013-02-06 12:02:00,
2013-02-06 07:12:00,24.0,20.0,30.19,NNW,327,0.0,1.0,86,0.00,,,0.00,,2013-02-06 12:12:00,
2013-02-06 07:22:00,24.0,20.0,30.19,NW,318,0.0,2.0,86,0.00,,,0.00,,2013-02-06 12:22:00,
2013-02-06 07:32:00,24.0,20.0,30.20,NW,318,0.0,0.0,86,0.00,,,0.00,,2013-02-06 12:32:00,
2013-02-06 07:42:00,24.0,20.0,30.20,NW,318,0.0,0.0,86,0.00,,,0.00,,2013-02-06 12:42:00,
2013-02-06 07:52:00,24.0,20.0,30.20,NW,318,0.0,0.0,86,0.00,,,0.00,,2013-02-06 12:52:00,
2013-02-06 08:01:00,24.0,20.0,30.21,NW,318,0.0,0.0,86,0.00,,,0.00,,2013-02-06 13:01:00,
2013-02-06 08:12:00,24.0,20.0,30.21,NW,318,0.0,0.0,86,0.00,,,0.00,,2013-02-06 13:12:00,
2013-02-06 08:22:00,23.0,19.0,30.21,NW,318,0.0,0.0,86,0.00,,,0.00,,2013-02-06 13:22:00,
2013-02-06 08:32:00,23.0,19.0,30.21,NW,318,0.0,0.0,86,0.00,,,0.00,,2013-02-06 13:32:00,
2013-02-06 08:42:00,23.0,19.0,30.21,NW,318,0.0,0.0,86,0.00,,,0.00,,2013-02-06 13:42:00,
2013-02-06 08:52:00,23.0,20.0,30.21,NW,319,0.0,1.0,87,0.00,,,0.00,,2013-02-06 13:52:00,
2013-02-06 09:02:00,23.0,20.0,30.21,NW,319,0.0,0.0,87,0.00,,,0.00,,2013-02-06 14:02:00,
2013-02-06 09:11:00,23.0,20.0,30.21,NW,319,0.0,0.0,87,0.00,,,0.00,,2013-02-06 14:11:00,
2013-02-06 09:22:00,24.0,20.0,30.22,NW,321,0.0,1.0,85,0.00,,,0.00,,2013-02-06 14:22:00,
2013-02-06 09:32:00,26.0,21.0,30.22,NW,321,0.0,1.0,81,0.00,,,0.00,,2013-02-06 14:32:00,
2013-02-06 09:42:00,26.0,21.0,30.22,NW,321,0.0,1.0,81,0.00,,,0.00,,2013-02-06 14:42:00,
2013-02-06 09:52:00,26.0,21.0,30.23,NW,321,0.0,1.0,81,0.00,,,0.00,,2013-02-06 14:52:00,
2013-02-06 10:01:00,28.0,23.0,30.23,NNW,348,0.0,1.0,80,0.00,,,0.00,,2013-02-06 15:01:00,
2013-02-06 10:11:00,28.0,23.0,30.23,NNW,348,0.0,1.0,80,0.00,,,0.00,,2013-02-06 15:11:00,
2013-02-06 10:21:00,29.0,22.0,30.23,ENE,67,0.0,2.0,75,0.00,,,0.00,,2013-02-06 15:21:00,
2013-02-06 10:31:00,29.0,23.0,30.24,ENE,67,0.0,1.0,78,0.00,,,0.00,,2013-02-06 15:31:00,
2013-02-06 10:41:00,29.0,23.0,30.24,ENE,67,0.0,1.0,78,0.00,,,0.00,,2013-02-06 15:41:00,
2013-02-06 10:52:00,31.0,24.0,30.24,ENE,67,0.0,1.0,74,0.00,,,0.00,,2013-02-06 15:52:00,
2013-02-06 11:01:00,34.0,26.0,30.24,ENE,67,0.0,0.0,71,0.00,,,0.00,,2013-02-06 16:01:00,
2013-02-06 11:11:00,34.0,26.0,30.24,ENE,67,0.0,0.0,71,0.00,,,0.00,,2013-02-06 16:11:00,
2013-02-06 11:21:00,35.0,25.0,30.25,ENE,67,0.0,1.0,67,0.01,,,0.01,,2013-02-06 16:21:00,
2013-02-06 11:32:00,37.0,25.0,30.26,ENE,67,0.0,1.0,62,0.01,,,0.01,,2013-02-06 16:32:00,
2013-02-06 11:52:00,34.0,23.0,30.25,East,88,1.0,3.0,63,0.02,,,0.02,,2013-02-06 16:52:00,
2013-02-06 12:02:00,32.0,22.0,30.26,ESE,111,2.0,3.0,67,0.02,,,0.02,,2013-02-06 17:02:00,
2013-02-06 12:11:00,32.0,22.0,30.26,ESE,111,2.0,3.0,67,0.02,,,0.02,,2013-02-06 17:11:00,
2013-02-06 12:21:00,33.0,23.0,30.26,SW,235,1.0,3.0,67,0.01,,,0.02,,2013-02-06 17:21:00,
2013-02-06 12:32:00,35.0,24.0,30.26,SSW,203,1.0,4.0,64,0.02,,,0.03,,2013-02-06 17:32:00,
2013-02-06 12:41:00,35.0,24.0,30.26,SSW,203,1.0,4.0,64,0.02,,,0.03,,2013-02-06 17:41:00,
2013-02-06 12:52:00,35.0,24.0,30.26,SW,232,1.0,3.0,65,0.02,,,0.04,,2013-02-06 17:52:00,
2013-02-06 13:01:00,35.0,24.0,30.26,SW,232,1.0,3.0,65,0.02,,,0.04,,2013-02-06 18:01:00,
2013-02-06 13:11:00,35.0,24.0,30.26,SW,232,1.0,3.0,65,0.02,,,0.04,,2013-02-06 18:11:00,
2013-02-06 13:23:00,33.0,23.0,30.24,ESE,111,2.0,5.0,67,0.03,,,0.05,,2013-02-06 18:23:00,
2013-02-06 13:32:00,33.0,23.0,30.24,ESE,107,2.0,4.0,67,0.02,,,0.05,,2013-02-06 18:32:00,
2013-02-06 13:42:00,33.0,23.0,30.24,ESE,107,2.0,4.0,67,0.02,,,0.05,,2013-02-06 18:42:00,
2013-02-06 13:52:00,33.0,24.0,30.24,ESE,103,1.0,5.0,69,0.02,,,0.06,,2013-02-06 18:52:00,
2013-02-06 14:01:00,33.0,23.0,30.23,ESE,123,2.0,3.0,67,0.02,,,0.06,,2013-02-06 19:01:00,
2013-02-06 14:11:00,33.0,23.0,30.23,ESE,123,2.0,3.0,67,0.02,,,0.06,,2013-02-06 19:11:00,
2013-02-06 14:21:00,33.0,24.0,30.23,East,96,2.0,4.0,68,0.01,,,0.06,,2013-02-06 19:21:00,
2013-02-06 14:32:00,33.0,24.0,30.24,SSW,201,0.0,5.0,70,0.01,,,0.06,,2013-02-06 19:32:00,
2013-02-06 14:41:00,33.0,24.0,30.24,SSW,201,0.0,5.0,70,0.01,,,0.06,,2013-02-06 19:41:00,
2013-02-06 14:52:00,34.0,24.0,30.23,SSW,202,0.0,3.0,67,0.01,,,0.07,,2013-02-06 19:52:00,
2013-02-06 15:01:00,34.0,24.0,30.23,SSW,201,1.0,4.0,66,0.01,,,0.07,,2013-02-06 20:01:00,
2013-02-06 15:11:00,34.0,24.0,30.23,SSW,201,1.0,4.0,66,0.01,,,0.07,,2013-02-06 20:11:00,
2013-02-06 15:21:00,32.0,24.0,30.23,ESE,103,3.0,7.0,71,0.01,,,0.07,,2013-02-06 20:21:00,
2013-02-06 15:32:00,32.0,24.0,30.23,ESE,116,2.0,5.0,71,0.01,,,0.07,,2013-02-06 20:32:00,
2013-02-06 15:41:00,32.0,24.0,30.23,ESE,116,2.0,5.0,71,0.01,,,0.07,,2013-02-06 20:41:00,
2013-02-06 15:52:00,33.0,25.0,30.23,ESE,116,1.0,5.0,71,0.00,,,0.07,,2013-02-06 20:52:00,
2013-02-06 16:02:00,33.0,25.0,30.24,ESE,118,1.0,3.0,71,0.00,,,0.07,,2013-02-06 21:02:00,
2013-02-06 16:11:00,33.0,25.0,30.24,ESE,118,1.0,3.0,71,0.00,,,0.07,,2013-02-06 21:11:00,
2013-02-06 16:21:00,34.0,25.0,30.23,South,189,1.0,4.0,69,0.00,,,0.07,,2013-02-06 21:21:00,
2013-02-06 16:32:00,32.0,24.0,30.23,ESE,114,2.0,5.0,72,0.00,,,0.07,,2013-02-06 21:32:00,
2013-02-06 16:41:00,32.0,24.0,30.23,ESE,114,2.0,5.0,72,0.00,,,0.07,,2013-02-06 21:41:00,
2013-02-06 16:51:00,32.0,25.0,30.23,ESE,109,1.0,3.0,75,0.00,,,0.07,,2013-02-06 21:51:00,
2013-02-06 17:01:00,31.0,24.0,30.22,SE,129,1.0,5.0,75,0.00,,,0.07,,2013-02-06 22:01:00,
2013-02-06 17:11:00,31.0,24.0,30.22,SE,129,1.0,5.0,75,0.00,,,0.07,,2013-02-06 22:11:00,
2013-02-06 17:21:00,30.0,23.0,30.22,ESE,103,2.0,5.0,76,0.00,,,0.07,,2013-02-06 22:21:00,
2013-02-06 17:31:00,31.0,24.0,30.21,SE,130,2.0,3.0,75,0.00,,,0.07,,2013-02-06 22:31:00,
2013-02-06 17:42:00,31.0,24.0,30.21,SE,130,2.0,3.0,75,0.00,,,0.07,,2013-02-06 22:42:00,
2013-02-06 17:52:00,32.0,24.0,30.21,ESE,122,1.0,5.0,73,0.00,,,0.07,,2013-02-06 22:52:00,
2013-02-06 18:01:00,31.0,24.0,30.22,ESE,111,0.0,2.0,75,0.00,,,0.07,,2013-02-06 23:01:00,
2013-02-06 18:11:00,31.0,24.0,30.22,ESE,111,0.0,2.0,75,0.00,,,0.07,,2013-02-06 23:11:00,
2013-02-06 18:21:00,29.0,22.0,30.22,ESE,109,0.0,3.0,76,0.00,,,0.07,,2013-02-06 23:21:00,
2013-02-06 18:32:00,29.0,23.0,30.22,ESE,109,0.0,2.0,77,0.00,,,0.07,,2013-02-06 23:32:00,
2013-02-06 18:42:00,29.0,23.0,30.22,ESE,109,0.0,2.0,77,0.00,,,0.07,,2013-02-06 23:42:00,
2013-02-06 18:52:00,29.0,23.0,30.21,ESE,109,0.0,2.0,79,0.00,,,0.07,,2013-02-06 23:52:00,
2013-02-06 19:01:00,29.0,23.0,30.22,East,99,0.0,3.0,78,0.00,,,0.07,,2013-02-07 00:01:00,
2013-02-06 19:11:00,29.0,23.0,30.22,East,99,0.0,3.0,78,0.00,,,0.07,,2013-02-07 00:11:00,
2013-02-06 19:21:00,30.0,24.0,30.21,ESE,122,2.0,4.0,78,0.00,,,0.07,,2013-02-07 00:21:00,
2013-02-06 19:32:00,30.0,24.0,30.22,ESE,113,0.0,3.0,78,0.00,,,0.07,,2013-02-07 00:32:00,
2013-02-06 19:42:00,30.0,24.0,30.22,ESE,113,0.0,3.0,78,0.00,,,0.07,,2013-02-07 00:42:00,
2013-02-06 19:51:00,30.0,24.0,30.22,ESE,113,1.0,4.0,79,0.00,,,0.07,,2013-02-07 00:51:00,
2013-02-06 20:01:00,30.0,24.0,30.20,ESE,105,2.0,5.0,79,0.00,,,0.07,,2013-02-07 01:01:00,
2013-02-06 20:11:00,30.0,24.0,30.20,ESE,105,2.0,5.0,79,0.00,,,0.07,,2013-02-07 01:11:00,
2013-02-06 20:21:00,30.0,24.0,30.21,East,99,1.0,4.0,77,0.00,,,0.07,,2013-02-07 01:21:00,
2013-02-06 20:32:00,30.0,24.0,30.20,ESE,121,2.0,4.0,78,0.00,,,0.07,,2013-02-07 01:32:00,
2013-02-06 20:41:00,30.0,24.0,30.20,ESE,121,2.0,4.0,78,0.00,,,0.07,,2013-02-07 01:41:00,
2013-02-06 20:52:00,30.0,24.0,30.21,ESE,110,2.0,6.0,79,0.00,,,0.07,,2013-02-07 01:52:00,
2013-02-06 21:01:00,31.0,26.0,30.19,ESE,122,5.0,9.0,80,0.00,,,0.07,,2013-02-07 02:01:00,
2013-02-06 21:11:00,31.0,26.0,30.19,ESE,122,5.0,9.0,80,0.00,,,0.07,,2013-02-07 02:11:00,
2013-02-06 21:21:00,31.0,26.0,30.19,ESE,109,5.0,8.0,80,0.00,,,0.07,,2013-02-07 02:21:00,
2013-02-06 21:32:00,30.0,25.0,30.18,East,95,5.0,11.0,81,0.00,,,0.07,,2013-02-07 02:32:00,
2013-02-06 21:41:00,30.0,25.0,30.18,East,95,5.0,11.0,81,0.00,,,0.07,,2013-02-07 02:41:00,
2013-02-06 21:51:00,30.0,25.0,30.18,East,95,5.0,11.0,81,0.00,,,0.07,,2013-02-07 02:51:00,
2013-02-06 22:02:00,30.0,25.0,30.18,ESE,103,3.0,8.0,81,0.00,,,0.07,,2013-02-07 03:02:00,
2013-02-06 22:11:00,30.0,25.0,30.18,ESE,103,3.0,8.0,81,0.00,,,0.07,,2013-02-07 03:11:00,
2013-02-06 22:21:00,30.0,25.0,30.19,ESE,105,4.0,8.0,81,0.00,,,0.07,,2013-02-07 03:21:00,
2013-02-06 22:31:00,30.0,25.0,30.19,ESE,112,3.0,7.0,81,0.00,,,0.07,,2013-02-07 03:31:00,
2013-02-06 22:41:00,30.0,25.0,30.19,ESE,112,3.0,7.0,81,0.00,,,0.07,,2013-02-07 03:41:00,
2013-02-06 22:51:00,30.0,25.0,30.18,East,99,3.0,8.0,81,0.00,,,0.07,,2013-02-07 03:51:00,
2013-02-06 23:01:00,30.0,25.0,30.18,ESE,103,4.0,7.0,82,0.00,,,0.07,,2013-02-07 04:01:00,
2013-02-06 23:11:00,30.0,25.0,30.18,ESE,103,4.0,7.0,82,0.00,,,0.07,,2013-02-07 04:11:00,
2013-02-06 23:22:00,30.0,25.0,30.19,SE,127,4.0,8.0,82,0.00,,,0.07,,2013-02-07 04:22:00,
2013-02-06 23:32:00,30.0,25.0,30.18,East,101,3.0,6.0,82,0.00,,,0.07,,2013-02-07 04:32:00,
2013-02-06 23:41:00,30.0,25.0,30.18,East,101,3.0,6.0,82,0.00,,,0.07,,2013-02-07 04:41:00,
2013-02-06 23:52:00,30.0,25.0,30.18,ESE,105,3.0,5.0,82,0.00,,,0.07,,2013-02-07 04:52:00,